Temp
-12 -12 -12 -12 -12 -12 -12 -12 -12 -12 -12 -12 -12 -13 -13 -13 -13 -13 -13 -14 -14 -14 -14 -14 -14 -14 -14 -14 -14 -14 -14 -14 -14 -14 -14 -14 -14 -14 -14 -14 -14 -14
-13 -12 -12 -12 -12 -12 -12 -12 -12 -12 -12 -12 -12 -13 -13 -13 -13 -14 -14 -14 -14 -14 -14 -14 -14 -14 -14 -14 -14 -14 -14 -14 -14 -14 -14 -14 -14 -14 -14 -14 -14 -14
-14 -13 -13 -13 -12 -12 -12 -12 -12 -12 -12 -12 -13 -13 -13 -14 -14 -14 -14 -14 -14 -14 -14 -14 -14 -14 -14 -15 -15 -15 -15 -15 -15 -15 -14 -14 -14 -14 -14 -14 -14 -14
-14 -14 -14 -14 -13 -13 -13 -12 -12 -12 -12 -13 -13 -14 -14 -14 -14 -14 -14 -14 -14 -14 -15 -15 -15 -15 -15 -15 -15 -15 -15 -15 -15 -15 -15 -15 -15 -15 -15 -15 -15 -14
-14 -14 -14 -14 -14 -14 -13 -13 -13 -13 -13 -13 -13 -14 -14 -15 -15 -15 -15 -15 -15 -15 -15 -15 -15 -15 -15 -15 -15 -15 -15 -15 -15 -15 -15 -15 -15 -15 -15 -15 -15 -15
-15 -15 -15 -15 -15 -14 -14 -14 -14 -14 -14 -14 -14 -15 -15 -15 -15 -16 -16 -16 -15 -15 -15 -15 -15 -15 -15 -16 -16 -16 -16 -16 -16 -16 -16 -16 -16 -16 -16 -15 -15 -15
-16 -16 -16 -16 -16 -15 -15 -15 -15 -15 -15 -15 -15 -15 -15 -15 -15 -15 -15 -16 -16 -16 -16 -16 -16 -16 -16 -16 -16 -16 -16 -16 -16 -16 -16 -16 -16 -16 -16 -16 -16 -16
-17 -17 -17 -17 -17 -16 -16 -16 -17 -16 -16 -16 -16 -16 -16 -16 -15 -15 -15 -15 -15 -16 -16 -16 -16 -16 -16 -16 -16 -16 -16 -16 -16 -16 -16 -16 -16 -16 -16 -16 -16 -16
-17 -17 -17 -17 -17 -17 -17 -17 -17 -18 -17 -17 -17 -16 -16 -16 -16 -16 -16 -16 -15 -15 -16 -16 -16 -16 -16 -16 -16 -16 -16 -16 -16 -16 -16 -16 -16 -16 -16 -16 -16 -16
-18 -18 -18 -17 -17 -17 -17 -17 -17 -17 -18 -18 -18 -17 -17 -17 -17 -17 -16 -16 -16 -16 -16 -16 -16 -16 -16 -16 -16 -16 -16 -16 -16 -16 -16 -16 -16 -16 -16 -16 -16 -16
-18 -18 -18 -18 -18 -17 -17 -17 -17 -17 -17 -18 -18 -18 -18 -18 -17 -17 -17 -17 -17 -16 -16 -16 -16 -16 -16 -16 -16 -16 -16 -16 -16 -16 -16 -16 -16 -16 -16 -16 -16 -16
-18 -19 -18 -18 -18 -18 -18 -17 -17 -17 -17 -17 -18 -18 -18 -18 -18 -18 -17 -17 -17 -17 -17 -17 -16 -16 -16 -16 -16 -16 -16 -16 -16 -16 -16 -16 -16 -16 -16 -16 -16 -16
-18 -19 -19 -19 -19 -19 -18 -18 -17 -17 -17 -17 -17 -17 -18 -18 -18 -18 -18 -18 -17 -17 -17 -17 -17 -17 -17 -17 -17 -17 -17 -16 -16 -16 -16 -17 -17 -17 -17 -16 -16 -16
-18 -18 -19 -19 -19 -19 -19 -18 -18 -17 -17 -17 -17 -17 -17 -18 -18 -18 -18 -18 -18 -18 -18 -17 -17 -17 -17 -17 -17 -17 -17 -17 -17 -17 -17 -17 -17 -17 -17 -16 -16 -17
-19 -19 -19 -19 -19 -19 -19 -19 -19 -18 -18 -18 -17 -17 -17 -17 -18 -18 -18 -18 -18 -18 -18 -18 -18 -18 -18 -18 -18 -18 -18 -18 -17 -17 -17 -17 -17 -17 -17 -17 -16 -17
-19 -19 -19 -19 -19 -19 -20 -19 -19 -19 -19 -19 -18 -18 -18 -18 -18 -18 -18 -18 -18 -18 -18 -18 -18 -18 -18 -18 -18 -18 -18 -18 -18 -17 -17 -17 -17 -17 -17 -17 -17 -17
-20 -20 -20 -20 -20 -20 -20 -20 -20 -19 -19 -19 -19 -19 -18 -18 -18 -18 -18 -18 -18 -18 -18 -17 -17 -18 -18 -18 -18 -18 -18 -18 -18 -18 -17 -17 -17 -17 -17 -17 -17 -17
-21 -21 -21 -21 -21 -21 -21 -20 -20 -20 -19 -19 -19 -19 -19 -19 -18 -18 -18 -18 -18 -18 -18 -18 -18 -18 -18 -18 -18 -18 -18 -18 -18 -18 -18 -17 -17 -17 -17 -17 -17 -17
-21 -21 -21 -21 -21 -21 -21 -21 -21 -21 -20 -20 -20 -20 -20 -19 -19 -19 -18 -18 -18 -18 -18 -18 -18 -18 -18 -18 -18 -18 -18 -18 -18 -18 -18 -18 -18 -18 -17 -17 -17 -17
-21 -21 -21 -21 -21 -21 -21 -21 -21 -21 -21 -20 -20 -20 -20 -20 -19 -19 -19 -19 -18 -18 -18 -18 -18 -18 -18 -18 -18 -18 -18 -18 -18 -18 -18 -18 -18 -18 -18 -18 -18 -18
-21 -21 -21 -21 -21 -21 -21 -21 -21 -21 -21 -21 -20 -20 -20 -20 -20 -20 -19 -19 -19 -19 -19 -19 -18 -18 -19 -19 -19 -19 -19 -19 -19 -19 -19 -18 -18 -18 -18 -18 -18 -18
-22 -22 -21 -21 -21 -21 -21 -21 -21 -21 -21 -21 -21 -21 -20 -20 -20 -20 -20 -20 -19 -19 -19 -19 -19 -19 -19 -19 -19 -19 -19 -19 -19 -19 -19 -19 -19 -19 -19 -19 -19 -19
-23 -23 -22 -22 -21 -21 -21 -21 -21 -21 -21 -21 -21 -21 -21 -21 -21 -21 -20 -20 -20 -20 -20 -20 -20 -20 -20 -20 -20 -19 -19 -19 -19 -20 -20 -20 -20 -20 -19 -19 -19 -19
-24 -23 -23 -23 -22 -22 -21 -21 -21 -21 -21 -21 -21 -21 -21 -21 -21 -21 -21 -21 -20 -20 -20 -20 -20 -20 -20 -20 -20 -20 -20 -20 -20 -20 -20 -20 -20 -20 -20 -20 -19 -19
-24 -24 -24 -24 -23 -23 -22 -22 -21 -21 -21 -21 -21 -21 -21 -21 -21 -21 -21 -21 -21 -21 -20 -20 -20 -20 -20 -20 -20 -20 -20 -20 -20 -20 -20 -20 -20 -20 -20 -20 -20 -19
-25 -25 -25 -24 -24 -23 -23 -23 -22 -22 -21 -21 -21 -21 -21 -21 -21 -21 -21 -21 -21 -21 -21 -21 -21 -20 -20 -20 -20 -20 -20 -20 -20 -20 -20 -20 -20 -20 -20 -20 -20 -20
Height
5689 5689 5689 5689 5689 5690 5691 5691 5692 5693 5692 5693 5693 5694 5694 5694 5693 5694 5694 5694 5694 5695 5695 5695 5696 5696 5697 5697 5697 5698 5698 5698 5698 5698 5698 5699 5699 5698 5699 5699 5699 5698
5683 5682 5681 5681 5681 5681 5682 5682 5682 5683 5683 5683 5684 5684 5685 5686 5687 5688 5688 5688 5688 5688 5688 5688 5689 5689 5690 5691 5691 5691 5692 5692 5692 5692 5692 5692 5692 5692 5692 5692 5692 5692
5676 5676 5675 5674 5674 5674 5674 5674 5674 5674 5674 5674 5675 5675 5676 5677 5678 5679 5680 5680 5681 5680 5681 5681 5682 5682 5683 5683 5684 5684 5685 5685 5685 5685 5685 5685 5685 5685 5685 5685 5685 5684
5668 5668 5668 5667 5667 5667 5667 5667 5667 5665 5665 5665 5665 5665 5666 5667 5669 5670 5671 5672 5673 5673 5673 5673 5674 5674 5674 5675 5675 5676 5676 5677 5677 5677 5678 5678 5678 5678 5678 5677 5677 5677
5659 5658 5658 5658 5659 5659 5659 5660 5658 5657 5657 5656 5655 5655 5656 5657 5659 5660 5661 5662 5663 5664 5665 5665 5666 5666 5666 5666 5667 5667 5668 5669 5669 5669 5670 5670 5671 5670 5670 5670 5669 5669
5649 5649 5649 5649 5650 5650 5651 5651 5650 5649 5649 5648 5648 5647 5648 5648 5649 5650 5651 5653 5654 5655 5656 5657 5657 5657 5657 5658 5658 5659 5660 5660 5661 5661 5662 5663 5663 5662 5663 5662 5662 5661
5640 5640 5641 5640 5641 5641 5642 5643 5642 5641 5640 5640 5640 5640 5640 5641 5641 5641 5642 5643 5644 5645 5647 5647 5648 5648 5648 5649 5650 5651 5652 5653 5653 5653 5654 5654 5654 5654 5655 5654 5654 5654
5630 5631 5631 5631 5631 5632 5633 5633 5634 5634 5633 5633 5633 5633 5633 5634 5634 5634 5634 5634 5635 5635 5636 5637 5638 5639 5639 5640 5641 5643 5644 5644 5645 5645 5645 5646 5646 5646 5646 5646 5646 5646
5620 5621 5621 5622 5622 5622 5623 5624 5625 5626 5626 5627 5627 5627 5626 5626 5626 5627 5627 5627 5627 5627 5627 5627 5628 5629 5630 5631 5633 5634 5635 5635 5636 5636 5636 5637 5638 5638 5638 5637 5637 5638
5610 5611 5611 5612 5613 5613 5614 5614 5615 5616 5617 5618 5619 5619 5620 5620 5619 5619 5619 5619 5619 5619 5619 5620 5620 5621 5621 5622 5624 5624 5625 5626 5627 5627 5628 5629 5629 5629 5629 5629 5630 5630
5599 5600 5601 5602 5603 5604 5604 5604 5605 5605 5606 5607 5608 5609 5610 5610 5610 5611 5611 5611 5612 5612 5612 5612 5612 5612 5612 5613 5614 5614 5615 5616 5618 5619 5619 5619 5619 5619 5620 5621 5621 5621
5587 5588 5589 5590 5591 5592 5593 5594 5594 5595 5595 5595 5596 5597 5598 5599 5600 5600 5601 5602 5602 5602 5602 5602 5602 5601 5602 5603 5604 5604 5605 5607 5608 5610 5610 5610 5610 5610 5611 5612 5612 5612
5575 5575 5576 5578 5579 5580 5581 5582 5583 5584 5584 5585 5584 5585 5586 5587 5588 5589 5589 5590 5591 5591 5591 5592 5591 5591 5592 5593 5594 5594 5595 5596 5598 5600 5600 5600 5600 5601 5601 5602 5603 5603
5564 5563 5563 5564 5566 5567 5568 5569 5570 5571 5572 5573 5573 5574 5575 5575 5575 5576 5577 5578 5579 5580 5581 5581 5581 5582 5583 5584 5584 5585 5585 5586 5587 5589 5589 5589 5590 5591 5591 5592 5592 5593
5551 5551 5551 5551 5552 5553 5554 5556 5557 5559 5560 5561 5562 5562 5563 5562 5562 5563 5564 5566 5568 5568 5569 5570 5571 5572 5574 5574 5575 5575 5575 5575 5576 5577 5578 5579 5580 5581 5582 5583 5583 5583
5536 5537 5538 5538 5539 5540 5541 5542 5543 5545 5547 5548 5549 5550 5550 5550 5550 5550 5552 5554 5555 5556 5556 5557 5560 5563 5564 5564 5565 5565 5565 5565 5565 5566 5568 5568 5569 5571 5573 5575 5575 5575
5523 5524 5524 5525 5525 5526 5527 5528 5529 5531 5533 5534 5536 5537 5538 5538 5538 5539 5540 5541 5542 5543 5544 5545 5548 5551 5552 5553 5553 5554 5554 5554 5554 5555 5557 5558 5559 5561 5564 5566 5566 5566
5510 5511 5511 5511 5512 5513 5514 5515 5516 5517 5519 5520 5522 5524 5525 5526 5527 5527 5528 5528 5529 5530 5532 5534 5536 5538 5539 5540 5541 5542 5542 5542 5543 5544 5546 5548 5550 5552 5554 5556 5557 5557
5494 5497 5498 5499 5499 5500 5501 5503 5504 5505 5506 5508 5509 5511 5512 5513 5515 5515 5516 5517 5517 5518 5520 5522 5524 5526 5527 5529 5530 5530 5530 5531 5531 5532 5534 5537 5539 5542 5543 5545 5547 5547
5477 5480 5483 5485 5486 5487 5488 5490 5491 5492 5494 5494 5496 5498 5499 5500 5501 5502 5504 5505 5505 5506 5508 5509 5512 5514 5515 5517 5518 5519 5519 5519 5519 5520 5523 5526 5529 5531 5533 5534 5536 5536
5462 5463 5465 5468 5470 5472 5474 5475 5476 5478 5480 5480 5483 5484 5485 5486 5488 5489 5490 5492 5493 5494 5496 5498 5501 5502 5503 5505 5506 5507 5508 5508 5508 5508 5511 5515 5518 5521 5523 5524 5525 5526
5446 5447 5449 5451 5454 5457 5460 5461 5462 5463 5464 5465 5468 5470 5471 5473 5474 5475 5477 5478 5480 5482 5484 5487 5489 5490 5491 5493 5494 5495 5496 5496 5496 5497 5500 5504 5507 5510 5512 5514 5515 5515
5430 5431 5433 5435 5437 5440 5443 5446 5447 5449 5450 5450 5453 5456 5458 5459 5461 5463 5464 5466 5468 5470 5472 5475 5477 5478 5479 5480 5481 5482 5483 5484 5485 5487 5489 5493 5496 5499 5502 5503 5504 5505
5416 5415 5417 5418 5421 5423 5426 5429 5431 5433 5435 5435 5437 5441 5444 5446 5448 5450 5452 5453 5455 5457 5459 5461 5464 5466 5466 5468 5469 5470 5471 5472 5474 5476 5479 5483 5486 5488 5490 5492 5493 5494
5401 5400 5401 5403 5405 5406 5408 5411 5414 5417 5418 5420 5422 5425 5428 5431 5434 5437 5439 5441 5442 5444 5446 5448 5451 5453 5454 5456 5457 5458 5458 5460 5461 5464 5469 5472 5474 5477 5479 5480 5481 5482
5385 5385 5386 5387 5389 5390 5392 5394 5397 5399 5401 5404 5406 5408 5412 5416 5419 5422 5426 5428 5429 5431 5433 5435 5438 5440 5441 5443 5446 5447 5447 5448 5449 5454 5458 5461 5463 5465 5467 5469 5471 5472
Wind_Speed
54 53 53 53 53 53 53 54 56 56 56 56 55 54 53 53 53 52 51 50 50 50 49 50 50 49 49 49 49 50 50 51 52 53 53 53 54 55 55 55 54 54
55 54 54 54 54 55 55 56 57 57 58 57 56 55 55 54 54 53 52 52 51 51 51 51 50 50 50 50 50 51 52 52 53 54 54 55 55 56 56 56 56 56
54 53 54 55 55 56 57 58 59 59 59 59 57 56 55 55 55 55 55 54 54 53 52 52 52 51 51 51 52 53 53 54 54 55 55 55 55 55 56 56 57 57
56 55 54 55 56 57 58 59 60 61 61 61 59 58 57 56 56 56 57 57 56 56 55 54 54 54 54 54 55 55 55 55 55 56 56 55 55 55 55 56 56 56
58 57 56 55 56 57 58 60 61 61 62 63 63 61 60 59 58 58 58 58 58 58 57 57 57 57 57 57 56 56 56 55 55 55 56 55 55 55 55 55 55 56
57 57 56 55 56 57 58 60 61 61 61 62 63 64 64 63 62 60 59 59 59 59 59 59 59 58 58 58 57 56 56 55 55 55 56 56 56 56 55 55 56 57
56 55 54 54 55 56 57 59 61 62 62 62 63 65 66 66 66 64 62 61 61 60 60 60 60 60 60 59 59 58 57 57 56 57 57 57 58 58 58 57 58 58
55 54 53 54 54 56 57 58 59 61 63 64 65 65 66 67 67 67 66 66 65 65 64 63 62 62 62 62 61 61 60 59 59 59 59 58 58 59 59 60 61 61
56 56 56 56 56 57 58 59 60 61 62 64 66 67 67 67 68 68 68 69 69 69 69 68 66 65 65 65 64 63 62 62 62 62 61 61 61 61 61 62 62 63
60 58 58 57 57 59 61 63 64 64 64 65 66 68 69 69 69 69 70 71 71 72 72 70 69 68 67 66 65 65 64 64 64 64 64 63 63 63 64 63 63 63
64 61 60 59 59 59 62 66 68 69 69 68 68 68 69 71 71 71 71 72 72 71 71 71 70 69 67 67 66 66 65 65 65 66 67 67 66 66 65 63 62 61
72 69 67 66 65 63 62 65 69 73 74 73 72 72 71 71 73 73 74 74 74 73 71 70 69 68 67 67 67 66 66 66 66 67 69 70 69 68 67 63 60 60
81 79 76 73 71 70 67 65 68 73 77 78 78 77 76 75 75 75 76 77 78 78 76 74 72 70 69 69 68 69 69 69 69 69 71 72 72 70 68 65 61 60
84 84 83 79 75 72 70 68 68 72 77 80 81 80 80 80 79 79 79 79 80 80 81 79 77 75 73 71 71 71 72 73 73 73 74 75 75 74 71 67 63 60
84 84 83 82 78 73 71 71 71 73 76 80 83 83 82 82 82 83 82 82 82 83 84 83 82 80 78 76 75 75 75 76 76 76 77 79 79 78 74 69 64 60
81 81 79 78 77 74 72 73 74 75 76 80 83 85 85 85 84 84 84 84 85 86 87 87 85 83 81 80 79 78 78 79 79 79 79 81 82 81 77 70 65 62
78 77 75 74 73 72 72 73 74 76 78 80 83 86 89 89 89 87 86 86 86 86 87 88 87 85 82 81 79 77 77 77 78 79 80 81 83 81 77 72 68 66
78 76 75 73 72 71 71 72 74 76 79 81 83 85 88 91 92 91 90 89 88 86 85 84 85 85 84 82 81 79 78 76 76 76 76 78 79 78 75 72 70 69
83 80 78 77 76 75 75 75 75 76 78 80 83 85 86 88 91 93 93 92 91 89 86 83 81 80 80 80 81 83 82 80 77 75 74 73 73 74 72 72 71 70
88 86 84 83 82 82 82 81 80 80 80 81 83 85 86 86 88 90 91 91 90 89 88 87 84 81 78 76 76 79 81 81 78 76 74 72 70 70 70 71 71 70
95 94 92 89 88 87 88 88 87 85 85 85 85 86 87 86 86 86 87 88 87 86 86 86 86 84 82 78 75 74 76 78 77 75 72 68 66 66 67 67 67 66
101 101 99 98 96 93 92 91 90 88 87 86 86 86 86 86 86 86 87 87 87 86 85 84 84 83 82 81 80 78 76 75 73 70 66 63 61 61 61 61 61 61
101 102 102 102 101 99 96 93 91 88 86 85 84 84 84 85 85 86 87 88 88 87 87 86 84 83 81 80 80 79 77 74 71 67 63 60 59 58 58 58 58 59
98 99 100 101 101 100 98 95 92 89 87 85 83 82 82 82 83 84 86 87 88 87 88 87 86 84 82 80 79 77 75 73 71 68 64 60 58 57 57 57 58 61
94 96 98 99 100 100 100 98 96 94 92 90 88 85 83 83 82 82 83 84 86 86 87 86 85 82 81 79 77 74 72 71 69 67 63 59 57 56 56 57 60 63
91 93 95 96 99 101 101 100 99 98 97 96 94 91 89 88 87 86 83 82 83 83 83 82 80 78 77 76 73 70 70 70 67 65 62 59 57 57 57 58 60 62
Wind_Direction
260 257 255 254 254 255 256 257 258 259 260 260 261 262 262 261 260 259 258 257 257 256 255 254 254 254 254 254 254 255 255 256 257 258 260 261 261 262 263 264 266 267
263 261 258 256 254 254 254 254 255 256 257 257 258 259 260 261 261 260 259 258 257 256 254 254 254 254 255 256 257 258 259 260 261 262 263 263 264 265 266 266 267 267
263 262 260 259 257 257 256 255 254 254 254 255 255 256 257 258 259 259 258 257 256 255 255 254 255 256 257 259 260 260 261 262 263 264 264 264 265 265 266 266 266 267
260 259 259 258 258 258 257 256 254 253 252 252 252 252 253 254 255 255 255 255 255 254 254 254 255 256 257 258 260 261 262 263 264 265 265 265 265 265 265 265 266 266
256 257 257 257 258 258 257 255 253 252 252 251 250 250 250 250 250 251 251 252 253 253 253 254 256 257 258 259 261 262 263 264 265 265 266 266 266 266 265 265 265 265
252 254 256 257 257 258 258 257 254 252 251 251 250 249 249 248 247 248 248 250 251 252 254 256 257 258 260 261 262 263 264 264 265 265 266 266 266 266 266 266 266 266
250 253 255 257 257 257 258 259 258 255 252 251 250 250 250 249 249 249 249 249 249 251 253 255 256 258 260 261 262 264 265 265 266 266 267 267 267 267 267 267 267 267
250 254 257 258 258 257 257 259 261 261 258 255 252 251 251 252 252 252 251 250 250 250 251 252 254 256 258 260 262 264 265 266 267 267 268 268 269 269 268 268 267 268
253 257 260 260 259 258 257 258 260 262 262 260 258 256 255 254 254 253 253 253 252 251 251 251 252 254 257 260 262 264 265 266 267 267 268 269 270 271 270 269 268 268
254 257 258 259 260 260 260 260 260 260 260 260 260 260 259 258 257 256 256 255 254 254 254 254 254 256 258 261 262 263 264 265 266 268 269 270 271 271 270 269 268 268
256 257 257 258 259 260 260 260 261 261 260 259 258 258 258 258 258 257 257 257 256 256 255 256 256 257 259 260 261 262 264 265 267 268 270 271 272 273 272 271 269 267
260 261 262 262 262 263 263 261 259 258 259 260 259 257 256 256 256 256 256 256 256 256 256 256 256 257 258 259 260 262 264 266 268 270 271 271 273 274 274 272 270 267
260 263 265 266 266 266 266 264 260 256 255 256 258 258 258 256 255 255 255 256 256 257 257 257 257 258 258 260 262 264 265 267 269 271 272 273 273 274 273 271 269 267
259 261 264 266 267 266 265 264 261 258 255 253 253 255 257 258 257 256 256 256 256 257 258 258 259 260 261 263 264 266 268 269 270 271 273 274 274 274 272 270 269 268
261 261 263 265 266 265 263 261 259 258 257 255 253 253 254 256 257 257 257 256 257 257 257 258 258 260 262 264 266 267 269 270 271 271 272 273 274 274 271 269 268 268
265 265 264 264 264 263 261 259 257 256 256 256 255 254 253 254 255 257 258 258 257 257 257 258 258 259 261 263 264 266 267 269 270 270 271 272 273 273 270 267 268 268
264 264 264 263 262 261 259 257 257 257 256 255 255 255 254 254 254 255 257 258 258 258 258 258 259 260 261 263 264 265 266 267 269 270 270 271 272 272 268 264 266 268
261 261 261 261 260 259 258 258 258 258 258 257 256 255 255 255 255 255 255 257 258 258 258 258 259 260 262 263 265 266 266 267 267 267 268 267 268 267 264 262 265 267
262 261 261 260 260 259 258 258 258 258 258 258 258 257 257 257 256 256 256 257 257 258 258 258 258 260 261 263 263 264 265 266 265 264 264 263 263 262 261 261 264 265
264 264 263 262 261 260 260 259 258 258 257 257 258 258 259 259 258 258 258 258 258 258 257 257 258 258 260 261 262 263 263 263 262 261 261 261 261 261 261 262 263 265
265 265 264 264 263 262 261 261 260 259 257 257 257 257 258 259 260 260 260 260 261 261 260 259 259 259 259 259 260 261 261 261 260 260 260 260 260 260 260 261 262 265
265 264 264 263 263 262 262 260 259 258 257 257 256 256 257 258 259 260 261 261 262 263 263 262 261 261 261 261 261 261 261 261 259 259 258 258 258 258 259 261 263 264
264 264 263 263 262 261 260 258 257 256 255 255 256 255 255 256 257 259 260 260 261 262 263 263 263 262 262 263 263 263 263 263 261 259 259 258 258 259 261 263 263 263
262 262 262 262 262 260 259 257 255 254 253 253 254 255 255 255 256 257 258 259 260 260 261 262 263 263 263 263 264 264 264 264 262 260 260 259 259 260 262 262 261 261
262 262 261 261 261 261 259 257 255 255 254 253 253 254 255 256 256 256 256 257 258 259 260 261 262 263 262 262 263 264 264 263 261 260 260 261 261 261 260 260 261 262
262 262 262 261 261 261 260 259 258 257 256 255 255 255 255 258 259 258 256 256 257 257 258 259 260 260 260 260 260 261 262 262 261 260 260 260 260 261 260 260 261 262